GFSSW_sfc_dewp_183.txt.gz
Dewpoint
57 56 55 54 54 54 54 53 53 53 54 55 56 56 56 57 58 53 50 55 54 56 55 46 43 44 46 45 45 44 36 30 32 32 33 36 35 36 34 33 30 28 27 27 28
56 56 55 55 54 54 54 53 53 52 53 54 55 56 56 58 52 47 55 55 55 53 47 43 40 43 43 43 43 40 34 33 36 36 36 35 35 35 32 32 28 26 28 24 29
55 56 56 55 54 54 54 54 54 53 54 53 55 56 56 56 46 45 54 53 52 52 44 43 41 42 41 42 41 40 37 37 35 35 35 35 34 32 31 31 29 26 25 24 27
56 55 55 55 54 54 54 54 55 54 54 55 56 56 56 50 39 46 49 49 50 44 43 41 40 40 40 39 40 36 37 36 36 37 35 33 32 30 31 28 26 22 22 20 25
56 55 55 55 54 53 54 54 55 54 55 56 55 55 52 44 43 43 45 41 40 38 40 40 38 38 37 36 37 37 34 35 35 36 34 32 30 28 25 27 21 24 20 16 23
55 56 56 56 55 54 54 54 54 54 55 56 56 55 49 39 43 39 34 36 36 35 36 38 37 37 35 34 35 34 35 33 32 31 28 26 24 24 22 24 25 23 15 19 23
54 55 55 55 55 54 53 53 53 54 54 54 55 51 43 40 41 37 34 33 36 34 32 35 35 36 32 31 32 29 26 28 27 25 18 22 20 21 19 21 25 22 13 22 25
55 55 55 55 55 53 53 52 53 54 54 54 53 46 37 41 40 36 33 31 32 32 32 34 34 30 29 30 26 23 21 19 21 21 17 17 21 15 16 20 21 19 12 15 21
55 55 55 55 54 53 53 51 53 53 53 53 47 41 35 43 35 34 34 29 31 32 33 32 31 27 26 22 19 19 18 15 20 21 18 17 18 12 16 17 17 14 12 10 11
55 56 55 54 54 52 52 50 50 47 46 42 40 37 36 31 34 33 33 31 29 30 29 30 29 26 24 21 21 16 14 11 10 13 14 14 13 11 13 13 12 13 13 10 10
55 55 54 54 53 51 46 41 39 37 39 35 33 32 31 31 31 29 31 29 29 27 23 25 20 19 22 22 18 14 13 14 11 14 14 14 13 12 13 11 12 11 10 9 9
55 54 54 53 50 49 43 35 37 39 26 34 34 30 31 28 25 24 29 27 26 21 20 18 15 18 19 20 16 15 14 12 12 12 12 12 12 13 13 12 12 11 11 10 16
56 54 54 51 48 46 38 35 41 39 30 27 31 30 28 27 22 22 27 25 22 18 15 13 18 19 19 18 16 14 14 13 11 12 13 13 13 12 10 13 17 13 13 19 20
56 54 54 50 45 42 37 40 42 42 33 26 26 25 25 25 23 24 25 22 18 15 15 14 17 17 16 14 14 14 13 12 12 13 13 11 13 10 9 14 16 18 20 20 19
56 54 53 50 45 42 39 40 42 42 27 24 23 27 23 22 25 24 23 21 18 16 16 16 15 15 15 13 14 16 15 13 14 12 10 10 10 8 7 11 15 18 20 19 18
55 55 51 44 45 43 40 41 42 34 24 21 23 23 22 22 24 24 23 23 21 17 18 17 18 15 15 15 14 16 13 13 12 9 18 13 7 9 7 6 13 17 18 17 13
55 55 50 47 43 42 42 40 35 30 20 20 21 22 20 19 23 23 23 21 19 23 20 18 16 17 17 15 16 15 14 26 26 25 26 7 7 7 8 6 9 15 16 13 14
54 54 52 46 44 43 41 37 28 19 14 22 21 21 20 20 22 23 23 22 22 20 22 19 16 15 17 16 15 14 15 24 19 19 13 5 7 8 10 7 9 14 15 13 14
53 52 47 46 44 44 37 32 24 19 17 22 21 20 19 23 24 23 22 22 24 22 25 28 16 15 14 14 14 14 15 15 16 10 11 12 9 10 8 9 8 12 12 12 14
50 46 45 46 47 44 37 31 23 19 23 23 19 21 21 23 24 26 23 22 21 23 25 24 23 15 15 15 14 14 13 17 27 20 15 9 6 6 9 8 8 9 10 12 14
48 42 46 45 46 39 32 30 25 23 26 24 21 21 23 24 27 26 29 22 21 21 22 25 28 15 17 16 16 15 14 17 25 21 17 11 7 8 8 9 9 9 11 12 13
46 37 44 45 33 33 34 30 29 25 27 28 29 25 23 26 26 28 26 25 22 21 19 24 35 20 16 18 18 17 30 29 23 24 21 17 12 11 11 10 11 10 10 11 13
41 37 43 41 31 32 34 33 28 27 26 28 27 27 24 24 32 29 27 25 25 22 22 22 29 26 19 19 18 18 18 27 24 20 20 15 14 12 11 11 11 12 12 13 15
38 32 33 33 34 35 34 32 31 31 27 28 28 27 25 24 26 28 26 25 24 22 26 27 27 31 23 30 30 23 26 19 21 20 15 15 14 13 12 13 14 14 16 17 18
40 34 33 30 31 35 36 36 32 30 29 29 29 27 28 32 24 25 25 24 24 26 25 30 29 24 22 18 22 25 24 24 21 21 20 15 14 14 16 17 17 17 17 16 16
36 37 37 36 32 33 35 33 31 30 31 28 29 27 27 32 26 25 27 26 25 26 32 33 29 23 23 21 20 19 20 22 22 18 17 17 17 18 18 16 15 14 15 16 16
44 44 39 36 36 32 33 33 32 31 32 28 28 29 28 29 27 28 28 28 27 31 31 30 29 26 23 17 17 18 18 18 21 22 23 20 21 20 19 16 18 19 18 17 16

GFSSW_sfc_dewp_186.txt.gz
Dewpoint
56 57 57 55 54 54 55 54 53 53 54 54 55 56 56 57 59 54 51 54 54 57 55 50 45 44 46 47 48 47 40 35 34 33 34 36 35 36 34 33 32 29 27 27 30
56 57 56 56 55 55 54 54 54 54 53 54 54 56 56 57 53 49 55 54 54 55 48 45 41 43 44 45 45 42 38 35 36 36 36 36 36 36 33 33 29 27 25 28 30
55 56 55 56 55 54 55 55 54 54 53 55 55 56 57 56 49 47 53 52 52 51 45 43 42 42 42 43 42 41 38 38 36 37 36 36 35 33 33 33 31 27 24 27 29
55 55 55 54 55 54 54 55 55 54 53 55 56 57 57 51 40 45 48 48 49 47 43 42 40 41 41 40 41 39 38 38 37 38 36 35 35 32 32 29 24 28 24 26 27
56 56 56 55 55 55 54 54 54 55 55 57 56 56 52 46 42 43 44 45 41 38 40 40 39 39 38 38 39 38 37 35 36 37 36 34 32 31 29 31 22 23 20 21 24
56 55 56 55 55 55 54 54 53 54 55 56 57 57 49 42 43 39 34 36 36 36 36 39 38 38 36 36 36 35 36 35 33 33 33 29 29 28 26 27 23 24 18 16 24
57 56 55 55 55 55 54 53 53 54 55 55 55 51 48 42 41 37 33 34 36 34 32 36 36 38 36 34 34 32 29 32 30 29 26 24 22 21 23 24 24 23 15 19 25
56 56 56 55 55 54 54 53 52 54 55 55 55 49 42 41 41 36 32 31 33 33 33 37 35 34 31 31 29 26 24 21 22 25 22 20 23 21 21 19 23 24 14 22 25
57 57 56 55 55 54 53 52 52 53 54 54 49 44 38 43 38 35 33 28 31 31 34 31 34 30 30 24 21 21 20 17 23 23 21 18 21 15 17 19 20 22 14 15 16
57 56 56 55 54 53 52 52 50 50 49 47 43 38 37 34 34 32 34 31 29 31 30 30 31 26 24 22 23 19 17 14 15 21 21 19 18 17 15 17 17 17 14 12 12
57 56 55 55 54 51 48 42 42 42 41 37 35 34 34 32 32 30 31 29 29 28 25 28 23 23 26 23 21 16 15 16 13 15 16 16 14 14 14 14 14 12 13 13 11
57 56 55 55 53 50 46 36 39 40 31 37 36 35 32 30 25 25 30 26 27 24 24 22 18 21 22 21 20 16 15 14 14 14 13 13 12 14 14 13 12 12 12 11 9
57 56 55 55 52 48 42 38 41 39 32 24 33 33 30 29 24 23 27 27 26 23 20 17 20 20 21 20 18 15 15 15 13 14 13 13 13 14 14 12 16 16 13 13 17
56 56 55 53 47 43 39 41 42 43 34 26 27 28 29 28 25 24 26 24 21 18 18 17 19 18 18 16 16 15 14 14 14 14 14 12 14 12 10 12 16 16 16 20 21
54 55 55 52 47 42 41 41 43 43 25 27 25 26 26 23 24 24 25 24 20 17 19 19 17 17 16 16 17 17 19 16 16 13 12 11 10 16 10 14 15 16 20 20 19
53 55 55 50 47 44 42 41 43 34 22 22 24 23 23 23 25 24 23 24 23 20 20 19 19 17 18 16 16 17 14 15 14 12 13 15 8 9 7 10 16 18 20 19 17
52 54 53 49 45 45 44 42 33 28 24 21 21 22 21 19 23 23 22 21 19 20 19 19 16 18 18 17 19 17 14 20 19 17 18 9 7 8 7 8 15 18 18 17 14
51 53 53 50 47 48 46 37 26 22 21 23 22 22 20 19 21 23 23 22 22 22 24 20 16 16 17 18 17 15 19 22 16 15 13 6 6 9 8 7 15 17 18 14 14
51 50 50 49 47 47 39 29 27 24 21 21 21 21 20 21 24 22 22 23 25 23 24 25 15 16 17 16 15 14 14 18 16 14 11 14 9 9 10 8 10 15 15 13 14
47 47 46 47 47 45 35 30 30 25 24 23 21 21 20 19 25 25 23 23 24 25 29 26 17 16 15 17 16 14 14 17 21 11 15 13 12 9 8 9 9 12 15 13 15
45 41 46 47 47 38 30 32 30 28 26 25 22 22 23 24 25 26 29 23 23 23 28 26 25 16 16 15 15 15 14 18 23 20 16 13 9 7 10 10 8 10 11 11 14
43 35 45 47 33 33 32 32 33 28 29 30 30 29 23 26 25 27 28 28 23 24 23 29 31 17 17 18 19 19 22 22 20 14 16 16 14 12 11 11 12 10 10 12 14
38 37 44 43 31 31 33 31 31 30 29 29 29 29 26 27 27 29 29 28 27 24 24 26 26 17 15 18 19 17 20 25 19 19 15 14 16 12 11 11 11 12 13 14 14
38 31 33 33 35 34 32 31 33 35 30 29 29 29 27 25 28 28 26 28 26 26 30 30 27 24 21 22 21 15 19 22 19 15 15 18 15 12 12 13 13 13 15 15 16
39 33 35 30 31 34 36 35 35 30 31 31 32 29 28 27 26 26 26 24 26 29 25 27 20 22 23 22 25 23 18 19 17 18 16 15 15 16 17 18 17 16 15 15 15
36 34 35 34 33 32 33 33 32 32 31 30 31 28 28 29 27 26 27 26 25 26 25 28 22 22 21 21 18 18 23 23 19 18 17 17 17 18 18 16 16 16 16 16 17
41 41 37 35 35 32 32 33 35 33 35 32 32 32 28 30 29 29 29 29 28 27 24 24 24 21 17 19 18 17 18 21 22 21 19 17 19 21 19 18 19 19 20 19 17

GFSSW_sfc_dewp_192.txt.gz
Dewpoint
57 57 56 56 54 55 55 55 55 54 54 53 54 55 56 57 58 56 52 54 55 57 56 50 49 48 45 45 45 44 39 36 36 34 34 36 34 35 32 26 26 26 27 27 30
57 57 56 57 56 56 56 55 55 55 55 54 54 56 56 58 54 52 56 58 57 55 49 47 45 44 43 44 44 42 39 38 36 35 35 36 35 34 31 27 25 26 28 30 24
58 58 57 56 56 56 56 55 55 55 56 56 56 57 57 57 50 50 59 57 56 53 47 47 45 42 42 43 42 41 38 38 37 36 36 36 34 34 32 31 25 25 27 31 27
57 57 57 56 56 56 55 55 55 55 55 56 57 57 58 54 38 46 58 55 53 48 45 42 41 41 40 40 42 38 40 39 38 38 35 34 33 32 32 28 28 27 29 31 31
57 57 57 56 56 56 55 55 55 54 54 56 57 58 53 48 47 45 54 51 45 41 38 40 40 39 39 40 40 39 39 37 37 37 35 35 33 31 31 26 27 27 29 30 28
57 57 56 57 56 55 55 55 55 54 53 56 56 58 50 43 44 44 47 41 39 39 36 38 39 39 37 35 39 35 36 35 36 35 34 33 32 31 30 25 24 27 28 28 21
57 58 58 57 56 55 55 55 55 54 53 55 56 53 49 46 40 38 33 34 36 35 33 35 35 37 34 32 34 30 31 25 32 34 31 28 25 25 29 22 21 24 26 25 20
58 58 58 58 56 55 55 55 54 54 53 55 55 50 46 47 41 34 33 33 33 33 34 35 34 31 30 30 27 27 24 21 22 31 23 22 18 17 25 22 19 17 15 24 23
57 57 57 58 57 56 55 55 54 53 52 54 50 48 41 46 38 37 32 31 31 32 32 32 31 28 27 24 21 22 18 18 20 29 22 19 16 18 22 23 22 18 14 23 24
55 56 57 57 57 56 55 54 52 50 51 51 49 43 42 37 39 38 34 32 31 31 29 30 29 25 23 22 14 18 18 17 19 25 20 17 16 17 18 23 23 22 15 23 24
53 54 55 56 56 55 50 45 39 42 44 41 41 40 36 36 33 32 32 30 30 30 25 28 26 22 23 22 21 18 17 14 14 20 20 19 17 17 18 17 20 23 21 21 24
51 52 53 53 56 55 48 43 36 37 32 38 41 41 34 32 29 30 30 27 27 26 26 25 23 24 24 23 22 17 15 13 14 16 18 14 14 17 19 17 17 19 22 17 16
51 52 52 53 54 50 46 43 41 39 32 31 34 38 39 31 28 27 29 27 26 25 25 23 22 24 23 24 20 15 14 14 14 14 14 12 13 14 15 16 16 18 18 18 15
51 51 51 52 50 47 44 46 42 41 29 24 30 30 35 31 30 27 29 27 26 25 24 23 21 22 20 18 18 15 15 15 15 12 10 15 11 11 11 14 14 14 13 13 22
51 51 51 50 48 43 42 42 43 41 20 23 29 30 31 30 28 27 30 23 23 22 21 21 19 19 17 17 17 15 17 15 15 13 11 11 10 11 10 13 14 15 15 16 25
49 50 51 48 49 47 43 44 43 30 15 24 25 26 27 26 25 24 25 24 23 19 19 18 19 18 17 18 17 17 15 17 16 13 8 11 11 10 9 10 15 15 19 22 21
50 50 49 47 43 47 47 44 30 22 25 24 23 26 27 25 23 22 22 22 18 16 16 17 15 17 18 16 17 16 15 12 12 9 11 14 9 10 10 11 15 15 20 20 20
49 49 48 46 48 47 46 36 23 22 24 25 24 25 26 25 23 22 21 21 21 21 19 17 14 16 17 16 14 14 17 16 10 17 19 6 10 9 8 10 16 20 20 16 16
48 44 45 44 47 47 40 27 24 26 28 30 23 22 23 24 24 22 21 20 22 22 19 17 15 16 17 15 16 14 15 18 16 14 10 10 10 10 8 16 18 19 16 14 15
42 41 42 46 47 45 35 29 28 29 33 33 28 24 22 21 23 23 21 21 21 24 27 22 13 16 16 16 15 14 16 14 13 6 11 14 13 10 7 14 18 18 16 14 15
43 37 39 45 47 39 29 30 29 31 31 32 32 32 26 24 23 24 25 23 22 23 27 21 17 14 15 14 14 14 13 19 18 17 13 11 12 11 9 10 17 18 16 15 15
41 32 42 47 34 33 30 34 34 30 31 32 33 33 33 26 24 25 24 26 26 27 23 24 19 13 14 18 18 16 17 20 16 9 8 13 12 15 10 10 14 16 16 15 15
36 35 43 44 29 27 33 33 34 31 32 31 32 31 34 33 27 25 28 29 29 27 27 27 17 10 14 16 18 16 19 17 13 15 11 11 10 14 11 10 10 13 15 14 14
33 29 33 34 34 28 28 30 31 35 34 36 33 32 32 32 32 29 24 27 27 29 34 29 21 16 14 13 15 10 15 21 18 14 15 13 14 11 11 11 11 10 11 11 12
33 31 34 28 30 32 33 31 30 32 36 35 35 32 33 30 33 29 24 25 27 32 28 24 19 19 21 22 17 14 15 16 15 16 15 14 15 12 12 11 11 12 13 14 15
33 33 34 33 30 27 30 31 32 32 35 34 33 34 34 32 32 31 27 25 24 25 26 26 20 22 20 23 20 19 19 21 19 18 16 17 16 19 14 14 14 13 14 15 16
37 40 34 33 32 29 29 26 32 32 33 32 34 33 33 33 34 36 32 33 29 26 21 21 21 17 15 19 19 17 19 19 20 20 19 15 17 18 17 16 17 16 16 16 16

GFSSW_sfc_dewp_195.txt.gz
Dewpoint
58 58 57 57 57 56 56 55 55 55 55 55 54 55 56 57 58 55 50 53 55 58 56 51 49 49 45 45 46 44 39 36 37 35 35 35 34 34 29 27 26 27 27 28 26
58 58 58 57 57 56 56 56 55 55 55 55 55 56 56 57 53 51 56 59 59 57 50 47 46 43 43 44 43 42 38 38 37 36 35 36 35 33 27 26 26 26 29 26 26
57 57 57 57 57 56 56 56 55 55 55 55 55 57 57 56 48 49 58 60 58 55 49 48 45 42 42 44 42 41 39 38 36 35 36 35 33 34 28 28 26 26 27 23 23
57 57 57 57 57 56 56 56 55 55 54 55 56 58 58 52 32 46 59 59 57 51 45 42 42 41 41 41 42 38 40 37 38 37 35 34 34 32 32 32 29 28 26 22 22
57 57 57 57 56 56 56 56 56 55 55 54 57 57 53 47 47 47 58 55 49 45 41 41 39 40 39 40 41 39 39 38 38 36 35 34 33 32 31 29 27 29 27 23 22
58 58 57 57 56 56 56 56 55 55 55 54 56 57 49 42 46 45 50 44 44 39 36 38 40 40 39 37 39 39 39 36 36 36 35 34 33 32 32 26 26 28 30 29 23
57 57 58 58 57 56 56 55 55 55 54 53 56 53 49 44 42 43 47 34 37 36 34 37 36 37 35 33 34 31 31 27 34 34 32 31 28 27 31 25 25 27 28 28 23
54 56 57 57 58 57 55 55 55 55 54 53 56 50 45 49 47 36 33 33 35 34 34 36 35 33 33 30 26 28 27 30 27 33 28 24 21 18 26 23 24 26 26 24 20
50 53 55 56 57 57 57 55 55 54 53 53 51 47 42 44 37 35 32 31 31 31 32 32 32 29 27 24 21 22 22 22 18 31 22 23 20 16 22 22 22 22 20 23 20
51 52 52 55 55 56 56 55 53 51 51 52 50 44 44 38 40 38 35 31 30 30 29 30 28 26 24 23 22 18 18 18 16 28 21 18 18 18 21 22 21 19 15 22 20
51 51 52 53 53 54 52 46 37 41 45 41 41 38 35 39 37 36 32 30 31 28 25 28 25 27 27 23 19 19 18 17 17 23 21 19 18 18 18 23 22 20 16 21 22
52 52 52 51 51 52 50 44 39 36 32 39 43 43 40 32 29 32 30 28 29 26 26 25 25 25 24 23 21 17 15 13 14 17 22 20 18 20 20 18 22 22 21 16 24
51 51 52 51 52 50 48 45 41 39 34 32 34 39 40 31 30 29 29 27 26 26 25 22 20 23 23 23 20 18 16 14 13 13 15 13 13 13 15 19 18 22 23 19 23
51 51 50 51 46 47 46 48 48 44 29 25 28 32 37 34 30 30 30 27 26 25 25 24 24 24 23 23 20 16 16 15 14 13 12 15 11 11 12 12 15 17 19 22 18
49 50 49 49 43 44 44 46 46 39 17 22 27 31 33 32 30 28 30 26 25 25 24 23 20 21 19 19 19 18 18 16 15 12 12 11 10 11 10 12 14 15 15 18 17
47 47 48 47 47 44 46 45 44 30 15 22 28 28 29 29 24 27 28 24 25 21 19 22 19 19 19 18 17 17 17 18 16 12 8 11 10 10 9 10 13 15 15 14 22
48 48 47 46 42 47 47 44 29 19 23 22 23 28 28 25 22 24 25 21 19 16 16 16 15 17 18 15 16 15 14 12 10 8 11 13 10 10 11 11 13 15 17 21 21
47 46 46 44 48 47 44 35 22 23 22 26 24 27 27 26 23 22 25 23 22 19 18 16 13 15 17 16 14 14 16 15 7 10 14 11 10 13 10 10 11 16 19 21 19
46 45 44 45 47 46 38 26 22 25 24 25 24 25 26 26 29 22 22 24 23 22 18 16 15 16 17 17 15 14 15 19 15 13 10 11 9 10 9 16 18 19 19 19 18
43 41 39 44 46 42 32 29 28 27 32 30 21 23 24 27 27 29 23 23 23 23 26 20 13 15 15 16 15 14 17 14 13 5 8 11 12 9 8 13 18 18 18 18 18
40 36 40 45 45 36 26 26 32 31 34 31 29 29 28 27 29 29 28 24 22 23 25 21 17 14 15 15 14 15 14 19 18 16 11 10 12 15 10 12 17 18 17 17 16
38 30 39 45 33 32 26 34 34 31 32 34 34 33 31 32 30 29 29 26 24 24 22 21 20 12 13 17 17 16 18 18 14 7 8 12 11 14 10 11 18 18 17 15 16
35 35 43 43 26 28 31 29 34 33 30 30 31 33 33 32 29 31 28 30 30 25 23 23 19 11 13 16 17 15 16 17 12 14 11 11 9 13 10 10 17 18 17 16 16
34 28 33 35 33 26 26 27 32 36 35 35 31 33 33 33 34 32 29 30 28 28 34 27 21 17 13 13 15 11 15 19 17 13 13 13 13 12 10 10 11 15 17 16 15
34 27 33 28 27 31 28 24 26 29 36 36 34 31 32 29 33 32 31 27 29 34 28 27 21 19 21 19 16 14 12 17 15 15 14 14 13 13 12 11 10 11 12 12 12
32 30 34 33 31 31 32 27 28 30 34 32 32 33 33 30 32 32 30 29 26 27 28 28 23 22 20 20 19 18 17 19 17 16 17 16 16 18 14 12 12 10 12 13 14
38 37 34 30 31 27 26 28 30 34 33 33 33 33 33 33 36 36 36 36 34 29 28 27 24 22 18 20 19 16 18 19 18 19 17 14 16 19 13 12 15 13 14 15 16